Oslo Airport, Norway

5:22 PM CEST on April 24, 2018 (GMT +0200)
Gardermoen

Weather History for ENGM - May, 2013

Change the Weather History Date:

Thursday, May 16, 2013

  Actual Average Record
Temperature  
Mean Temperature 60 °F -  
Max Temperature 69 °F 60 °F 75 °F (2000)
Min Temperature 50 °F 43 °F 32 °F (2006)
Degree Days  
Heating Degree Days 6    
Growing Degree Days 10 (Base 50)    
Moisture  
Dew Point 43 °F    
Average Humidity 57    
Maximum Humidity 76    
Minimum Humidity 31    
Precipitation  
Precipitation 0.00 in 0.09 in - ()
Sea Level Pressure  
Sea Level Pressure 29.76 in    
Wind  
Wind Speed 10 mph ()    
Max Wind Speed 20 mph    
Max Gust Speed 26 mph    
Visibility 6.6 miles    
Events Rain    
Averages and records for this station are not official NWS values.
T = Trace of Precipitation, MM = Missing Value Source: Averaged Metar Reports

Daily Weather History Graph

Daily Weather History Graph

Search for Another Location

Airport or City:

Astronomy

May. 16, 2013 Rise Set
Actual Time 4:34 AM CEST 9:51 PM CEST
Civil Twilight 3:28 AM CEST 10:58 PM CEST
Nautical Twilight 1:44 AM CEST 12:39 AM CEST
Astronomical Twilight Sun does not set Sun does not set
Moon 10:19 AM CEST (5/16) 1:37 AM CEST (5/16)
Length of Visible Light 19h 29m
Length of Day
17h 17m
Waxing Crescent, 33% of the Moon is Illuminated
May 16
Waxing Crescent
May 18
First Quarter
May 25
Full
May 31
Last Quarter
Jun 8
New

Hourly Weather History & Observations

Time (CEST) Temp. Dew Point Humidity Pressure Visibility Wind Dir Wind Speed Gust Speed Precip Events Conditions
12:20 AM 51.8 °F 41.0 °F 67% 29.71 in - SE 11.5 mph - N/A   Clear
12:50 AM 51.8 °F 41.0 °F 67% 29.68 in - SE 10.4 mph - N/A   Clear
1:20 AM 51.8 °F 41.0 °F 67% 29.68 in 6.2 mi SE 11.5 mph - N/A   Mostly Cloudy
1:50 AM 51.8 °F 41.0 °F 67% 29.68 in 6.2 mi SE 11.5 mph - N/A   Mostly Cloudy
2:00 AM 51 °F 42 °F 62%  in 17 mi SE 8.9 mph - -   Partly Cloudy
2:20 AM 50.0 °F 42.8 °F 76% 29.68 in 6.2 mi SE 10.4 mph - N/A Rain Light Rain Showers
2:50 AM 50.0 °F 41.0 °F 71% 29.68 in 6.2 mi SE 10.4 mph - N/A   Mostly Cloudy
3:20 AM 50.0 °F 41.0 °F 71% 29.68 in 6.2 mi SE 12.7 mph - N/A   Overcast
3:50 AM 50.0 °F 41.0 °F 71% 29.71 in 6.2 mi SE 10.4 mph - N/A   Overcast
4:20 AM 50.0 °F 41.0 °F 71% 29.71 in 6.2 mi SE 11.5 mph - N/A   Overcast
4:50 AM 50.0 °F 41.0 °F 71% 29.71 in 6.2 mi SE 11.5 mph - N/A   Overcast
5:20 AM 50.0 °F 41.0 °F 71% 29.71 in 6.2 mi SE 11.5 mph - N/A   Overcast
5:50 AM 50.0 °F 41.0 °F 71% 29.71 in 6.2 mi SE 8.1 mph - N/A   Overcast
6:20 AM 50.0 °F 41.0 °F 71% 29.71 in 6.2 mi SE 10.4 mph - N/A   Overcast
6:50 AM 50.0 °F 41.0 °F 71% 29.71 in 6.2 mi SE 6.9 mph - N/A   Mostly Cloudy
7:20 AM 50.0 °F 41.0 °F 71% 29.74 in 6.2 mi ESE 5.8 mph - N/A   Mostly Cloudy
7:50 AM 50.0 °F 41.0 °F 71% 29.74 in 6.2 mi SSE 4.6 mph - N/A   Mostly Cloudy
8:00 AM 50 °F 42 °F 64%  in 40 mi ESE 4.5 mph - -   Partly Cloudy
8:20 AM 50.0 °F 41.0 °F 71% 29.74 in 6.2 mi SE 6.9 mph - N/A   Overcast
8:50 AM 51.8 °F 41.0 °F 67% 29.74 in 6.2 mi ESE 6.9 mph - N/A   Overcast
9:20 AM 51.8 °F 42.8 °F 71% 29.74 in 6.2 mi ESE 6.9 mph - N/A   Mostly Cloudy
9:50 AM 55.4 °F 42.8 °F 63% 29.77 in 6.2 mi SE 9.2 mph - N/A   Mostly Cloudy
10:20 AM 55.4 °F 42.8 °F 63% 29.77 in 6.2 mi SE 9.2 mph - N/A   Mostly Cloudy
10:50 AM 55.4 °F 42.8 °F 63% 29.77 in 6.2 mi SE 9.2 mph - N/A   Mostly Cloudy
11:20 AM 59.0 °F 44.6 °F 59% 29.77 in 6.2 mi East 8.1 mph - N/A   Mostly Cloudy
11:50 AM 59.0 °F 44.6 °F 59% 29.77 in 6.2 mi ESE 10.4 mph - N/A   Mostly Cloudy
12:20 PM 59.0 °F 44.6 °F 59% 29.77 in 6.2 mi SE 9.2 mph - N/A   Mostly Cloudy
12:50 PM 60.8 °F 46.4 °F 59% 29.77 in 6.2 mi ESE 8.1 mph - N/A   Unknown
1:20 PM 60.8 °F 44.6 °F 55% 29.80 in - SSE 11.5 mph - N/A   Clear
1:50 PM 62.6 °F 46.4 °F 55% 29.77 in 6.2 mi SE 10.4 mph 23.0 mph N/A   Mostly Cloudy
2:00 PM 63 °F 46 °F 43%  in 40 mi SE 13.4 mph - -   Partly Cloudy
2:20 PM 64.4 °F 46.4 °F 52% 29.77 in 6.2 mi SE 13.8 mph - N/A   Mostly Cloudy
2:50 PM 66.2 °F 46.4 °F 49% 29.77 in 6.2 mi ESE 11.5 mph - N/A   Scattered Clouds
3:20 PM 66.2 °F 44.6 °F 46% 29.77 in - ESE 10.4 mph - N/A   Clear
3:50 PM 68.0 °F 42.8 °F 40% 29.77 in - SE 15.0 mph - N/A   Clear
4:20 PM 68.0 °F 42.8 °F 40% 29.77 in - SE 17.3 mph - N/A   Clear
4:50 PM 66.2 °F 42.8 °F 43% 29.77 in - SE 19.6 mph - N/A   Clear
5:20 PM 68.0 °F 42.8 °F 40% 29.77 in - SE 17.3 mph - N/A   Clear
5:50 PM 69.8 °F 42.8 °F 38% 29.77 in - ESE 16.1 mph - N/A   Clear
6:20 PM 68.0 °F 42.8 °F 40% 29.77 in - SE 16.1 mph - N/A   Clear
6:50 PM 68.0 °F 42.8 °F 40% 29.80 in - ESE 15.0 mph - N/A   Clear
7:20 PM 68.0 °F 42.8 °F 40% 29.80 in - SE 13.8 mph 26.5 mph N/A   Clear
7:50 PM 68.0 °F 42.8 °F 40% 29.80 in - SE 15.0 mph - N/A   Clear
8:00 PM 67 °F 43 °F 31%  in 25 mi SE 11.2 mph - -   Partly Cloudy
8:20 PM 66.2 °F 42.8 °F 43% 29.80 in - SE 16.1 mph - N/A   Clear
8:50 PM 66.2 °F 42.8 °F 43% 29.83 in - SE 11.5 mph - N/A   Clear
9:20 PM 64.4 °F 42.8 °F 45% 29.83 in - SE 8.1 mph - N/A   Clear
10:20 PM 62.6 °F 42.8 °F 48% 29.86 in - SE 5.8 mph - N/A   Clear
10:50 PM 60.8 °F 42.8 °F 52% 29.86 in - East 4.6 mph - N/A   Clear
11:20 PM 59.0 °F 42.8 °F 55% 29.89 in - Variable 2.3 mph - N/A   Clear
11:50 PM 59.0 °F 41.0 °F 51% 29.89 in - ESE 6.9 mph - N/A   Clear